Dewpoint
53 53 51 48 46 45 44 43 41 39 39 40 38 39 36 33 35 32 30 41 35 34 35 37 36 34 33 33 34 36 37 38 38 38 38 38 39 40
52 52 51 49 46 46 46 44 43 42 40 40 39 37 36 30 36 30 30 39 36 35 35 35 34 34 33 34 34 35 36 37 38 38 39 38 38 39
51 51 50 49 46 45 45 44 43 42 41 35 37 35 36 33 33 30 29 30 31 35 35 35 34 33 33 33 34 35 36 36 37 36 36 37 38 38
50 50 49 47 46 46 44 42 42 42 39 34 33 33 34 34 33 29 26 24 28 34 34 34 34 33 33 34 35 34 34 34 32 33 35 36 36 37
50 50 49 48 47 46 45 42 41 37 38 33 31 32 32 33 33 28 27 24 23 33 34 34 34 34 34 34 32 31 30 31 31 32 34 34 35 36
50 49 48 48 48 48 45 44 39 36 35 35 32 31 31 32 30 27 26 27 26 23 30 30 32 33 32 31 30 28 28 29 31 33 33 33 33 33
49 49 49 49 46 46 45 42 39 36 34 34 32 31 30 29 29 29 28 27 27 28 28 29 30 28 28 30 27 28 28 30 31 31 31 32 32 32
48 48 49 45 45 46 47 46 42 38 35 35 33 31 29 29 29 29 30 28 26 30 28 28 28 28 26 26 24 27 28 30 29 29 30 30 31 31
46 46 45 44 44 43 44 44 42 42 40 36 33 32 30 30 30 29 29 29 27 30 29 25 28 26 25 21 24 27 29 31 29 28 29 29 29 30
44 43 42 41 42 40 38 37 35 36 35 32 34 32 31 31 30 30 29 29 30 29 29 26 26 23 23 23 25 28 27 25 25 27 28 28 28 28
41 42 41 39 40 40 36 34 31 31 34 36 35 35 35 35 33 32 31 30 27 26 28 25 25 23 21 20 22 29 24 25 25 26 27 27 27 27
37 37 40 36 40 39 33 31 30 30 31 33 34 34 34 34 33 32 31 31 29 27 27 27 26 24 24 25 22 22 22 23 25 25 26 26 26 23
36 35 35 39 40 38 35 30 30 31 32 31 32 32 32 32 31 32 32 32 31 28 27 29 28 27 26 25 24 25 23 21 21 21 23 24 24 25
36 37 37 40 39 37 33 35 35 33 31 30 30 31 32 31 30 30 29 29 28 29 28 28 29 27 26 24 23 23 24 23 23 23 23 24 25 25
37 38 40 40 37 35 36 36 34 31 31 32 32 31 31 31 29 29 29 28 29 26 25 31 29 28 27 24 23 23 23 23 25 25 25 25 24 24
38 39 39 37 36 36 36 35 33 33 33 32 32 31 31 29 29 29 28 28 27 26 27 30 30 28 25 24 24 23 22 23 24 24 24 24 24 23
38 37 36 35 34 35 34 33 33 33 33 33 31 30 29 29 28 28 28 26 25 24 25 26 25 26 25 25 22 22 21 23 24 25 23 23 23 24
36 34 34 34 33 32 31 32 32 33 33 33 32 30 29 29 28 27 26 25 24 23 23 24 24 22 21 21 24 21 21 22 23 24 24 24 24 24
34 34 33 33 32 32 32 32 32 32 32 32 32 31 30 29 28 26 25 25 24 23 23 23 22 20 19 17 18 23 23 23 22 22 22 23 23 23
34 33 33 32 32 32 32 32 32 32 32 32 31 31 30 29 28 26 25 24 24 23 22 22 22 21 19 19 19 19 20 22 21 22 23 23 24 25
32 32 33 33 33 33 33 33 32 32 32 31 31 30 30 29 27 26 25 24 23 22 21 21 22 21 22 20 17 17 19 21 22 23 23 23 21 20
32 32 33 33 34 33 33 33 32 32 31 30 30 29 29 28 26 25 24 24 23 22 22 22 22 21 20 19 18 18 18 19 21 22 22 23 22 19
33 33 33 33 33 33 33 33 32 32 31 30 30 28 28 27 26 25 24 22 22 22 21 20 20 20 19 19 19 19 19 20 20 21 22 22 23 23
Lifted_Index
5 5 6 6 6 5 5 6 8 9 10 11 11 12 12 13 14 15 16 17 18 19 20 20 21 21 21 21 21 21 20 20 19 19 19 19 18 18
4 5 5 6 6 5 5 6 7 8 9 9 10 11 12 13 14 15 16 17 18 19 19 20 21 21 21 21 21 21 20 20 20 20 19 19 19 18
3 4 4 5 5 6 6 6 6 7 7 8 9 10 11 12 13 14 15 16 17 18 19 20 21 22 21 21 21 21 21 21 21 20 20 20 19 19
2 3 3 4 5 6 6 6 6 6 7 7 8 9 11 12 12 13 14 16 17 18 19 20 21 21 21 21 21 21 22 22 22 21 21 20 20 20
2 3 3 4 5 6 6 6 6 6 6 7 7 8 9 10 11 12 13 14 16 17 19 20 21 21 21 21 22 22 22 22 22 22 21 21 20 20
3 3 3 3 4 6 6 6 6 6 6 6 6 7 8 9 10 11 12 13 15 17 18 20 20 20 21 22 22 23 23 23 22 22 21 21 21 21
3 3 3 3 4 5 6 6 6 6 6 5 5 5 6 7 8 9 10 12 14 16 17 17 18 19 21 22 22 23 23 23 22 22 22 22 22 21
4 4 4 4 4 5 5 6 6 6 6 5 4 4 5 6 7 9 10 11 13 15 14 14 16 19 21 22 22 22 23 23 22 22 22 22 22 21
5 5 4 4 4 5 6 6 6 6 6 5 5 4 5 6 7 8 10 12 13 14 13 13 16 19 21 22 22 23 23 23 23 23 23 22 22 21
6 6 5 4 4 5 6 6 6 6 6 5 5 5 6 7 8 10 12 14 14 13 13 14 17 20 21 22 22 23 23 23 23 23 22 22 21 21
6 6 5 5 4 5 6 7 7 6 6 6 6 7 9 10 12 13 14 13 13 13 15 16 18 19 20 21 22 23 23 23 23 23 22 21 21 20
6 6 5 5 5 5 6 7 7 7 7 7 8 9 12 14 14 14 13 13 12 14 16 18 19 19 19 20 21 22 23 23 23 22 21 20 20 20
6 5 5 5 5 5 6 6 7 7 7 8 9 11 14 15 14 14 14 14 15 16 18 20 19 19 19 19 20 21 22 22 22 21 20 20 20 20
6 5 5 5 5 5 6 6 6 7 7 8 9 12 14 14 14 14 16 17 18 19 21 21 20 19 19 18 19 20 21 21 21 20 20 19 19 19
6 6 6 6 6 6 6 7 8 9 10 10 11 13 14 15 15 16 17 19 20 20 21 22 21 20 19 19 19 19 19 20 20 20 19 19 19 19
6 6 7 7 7 7 8 9 10 12 12 12 13 14 15 15 15 17 18 19 19 20 21 22 22 21 20 20 19 19 19 19 19 20 19 19 19 20
7 7 7 7 7 7 8 9 11 12 13 14 14 15 15 15 16 17 18 18 18 19 20 21 21 21 20 20 19 19 19 19 20 20 20 19 20 20
7 6 6 6 7 7 8 9 11 12 14 14 15 15 15 15 16 17 18 18 18 19 19 20 20 20 19 19 19 20 20 20 20 20 20 19 19 20
7 7 7 7 8 8 10 11 13 14 15 15 15 15 15 16 16 17 18 19 19 19 19 20 20 19 18 18 19 20 20 20 19 19 20 20 20 20
9 9 9 9 10 11 12 13 14 15 16 16 16 17 17 17 18 18 19 19 19 19 19 20 20 20 19 18 18 19 20 20 20 20 20 20 20 20
12 12 12 12 13 14 15 15 15 16 16 16 17 18 18 18 18 19 19 19 19 19 19 20 20 21 20 19 18 18 19 20 20 20 20 20 20 20
14 14 14 15 15 15 16 16 16 16 17 17 18 19 19 19 19 19 19 19 19 19 19 20 20 21 20 19 18 18 18 19 20 20 20 20 20 19
15 16 16 15 15 16 16 16 17 17 17 18 19 19 19 19 19 19 19 19 19 19 19 19 20 20 20 19 19 18 19 19 20 20 20 20 20 19